Location: Bijele Vode
(45.2833°N, 16.2000°E)
Time: 01:37:45
(UTC+00:00)

Nauka - Visible Passes

Search period start: 27 September 2021 00:00
Search period end: 07 October 2021 00:00
Orbit: 417 x 423 km, 51.6° (Epoch: 26 September)

Date Brightness Start Highest point End Pass type
(mag) Time Alt. Az. Time Alt. Az. Time Alt. Az.
27 Sep ? 18:18:04 10° NW 18:21:06 30° N 18:21:49 27° NE visible
28 Sep ? 17:30:49 10° NW 17:33:45 27° N 17:36:24 12° ENE visible
28 Sep ? 19:07:40 10° WNW 19:09:22 27° NW 19:09:22 27° NW visible
29 Sep ? 18:20:33 10° NW 18:23:50 45° NNE 18:24:01 44° NNE visible
30 Sep ? 17:33:30 10° NW 17:36:39 36° NNE 17:38:46 17° ENE visible
30 Sep ? 19:10:18 10° WNW 19:11:45 23° WNW 19:11:45 23° WNW visible
01 Oct ? 18:23:15 10° WNW 18:26:36 87° WSW 18:26:36 87° WSW visible
02 Oct ? 17:36:18 10° WNW 17:39:40 64° NNE 17:41:34 23° ESE visible
02 Oct ? 19:13:35 10° W 19:14:35 15° W 19:14:35 15° W visible
03 Oct ? 18:26:24 10° WNW 18:29:29 34° SW 18:29:41 34° SSW visible
04 Oct ? 17:39:25 10° WNW 17:42:43 54° SW 17:44:57 19° SE visible
05 Oct ? 16:52:35 10° WNW 16:55:59 84° SSW 16:59:20 10° ESE visible
05 Oct ? 18:30:40 10° WSW 18:32:21 13° SW 18:33:25 12° SSW visible
06 Oct ? 17:43:12 10° W 17:45:48 21° SW 17:48:23 10° S visible
